| time (UTC) | temp C | wind direction | speed KPH | gust KPH | rain 1hr cm | rain 24hr cm | rain mn cm | humidity % | barometer mb |
| 20260901231517 | 33 | 0 | 0.0 | 0.0 | 0.00 | 0.00 | 0.00 | 44 | 1018.0 |
| 20260901231017 | 33 | 103 | 0.0 | 9.7 | 0.00 | 0.00 | 0.00 | 44 | 1018.0 |
| 20260901230517 | 33 | 90 | 3.2 | 9.7 | 0.00 | 0.00 | 0.00 | 43 | 1018.0 |
| 20260901230017 | 33 | 69 | 3.2 | 9.7 | 0.00 | 0.00 | 0.00 | 43 | 1018.0 |
| 20260901225517 | 33 | 110 | 0.0 | 6.4 | 0.00 | 0.00 | 0.00 | 43 | 1018.0 |
| 20260901225017 | 33 | 86 | 0.0 | 8.0 | 0.00 | 0.00 | 0.00 | 42 | 1018.0 |
| 20260901224517 | 34 | 56 | 1.6 | 8.0 | 0.00 | 0.00 | 0.00 | 42 | 1018.0 |
| 20260901224017 | 34 | 86 | 0.0 | 11.3 | 0.00 | 0.00 | 0.00 | 42 | 1018.0 |
| 20260901223517 | 34 | 80 | 0.0 | 4.8 | 0.00 | 0.00 | 0.00 | 42 | 1018.0 |
| 20260901223016 | 34 | 82 | 0.0 | 11.3 | 0.00 | 0.00 | 0.00 | 42 | 1017.9 |
| 20260901222517 | 34 | 0 | 3.2 | 0.0 | 0.00 | 0.00 | 0.00 | 41 | 1017.9 |
| 20260901222022 | 34 | 4 | 0.0 | 8.0 | 0.00 | 0.00 | 0.00 | 41 | 1017.9 |
| 20260901221517 | 35 | 90 | 0.0 | 8.0 | 0.00 | 0.00 | 0.00 | 40 | 1017.8 |
| 20260901221017 | 35 | 64 | 0.0 | 12.9 | 0.00 | 0.00 | 0.00 | 40 | 1017.9 |
| 20260901220517 | 35 | 103 | 4.8 | 9.7 | 0.00 | 0.00 | 0.00 | 40 | 1017.9 |
| 20260901220017 | 35 | 97 | 0.0 | 12.9 | 0.00 | 0.00 | 0.00 | 40 | 1017.9 |
| 20260901215517 | 35 | 72 | 3.2 | 8.0 | 0.00 | 0.00 | 0.00 | 39 | 1017.9 |
| 20260901215017 | 35 | 89 | 0.0 | 19.3 | 0.00 | 0.00 | 0.00 | 38 | 1017.9 |
| 20260901214517 | 35 | 86 | 17.7 | 16.1 | 0.00 | 0.00 | 0.00 | 38 | 1017.9 |
| 20260901214017 | 35 | 90 | 0.0 | 17.7 | 0.00 | 0.00 | 0.00 | 37 | 1018.0 |
| 20260901213517 | 36 | 82 | 0.0 | 12.9 | 0.00 | 0.00 | 0.00 | 37 | 1017.9 |
| 20260901213017 | 36 | 120 | 0.0 | 9.7 | 0.00 | 0.00 | 0.00 | 37 | 1017.9 |
| 20260901212517 | 36 | 73 | 1.6 | 9.7 | 0.00 | 0.00 | 0.00 | 37 | 1017.9 |
| 20260901212017 | 36 | 24 | 3.2 | 6.4 | 0.00 | 0.00 | 0.00 | 37 | 1018.0 |
| 20260901211517 | 36 | 41 | 0.0 | 16.1 | 0.00 | 0.00 | 0.00 | 37 | 1018.1 |
| 20260901211017 | 36 | 92 | 8.0 | 14.5 | 0.00 | 0.00 | 0.00 | 36 | 1018.2 |
| 20260901210518 | 36 | 79 | 4.8 | 14.5 | 0.00 | 0.00 | 0.00 | 36 | 1018.3 |
| 20260901210017 | 36 | 68 | 0.0 | 14.5 | 0.00 | 0.00 | 0.00 | 37 | 1018.2 |
| 20260901205517 | 36 | 17 | 4.8 | 11.3 | 0.00 | 0.00 | 0.00 | 37 | 1018.3 |
| 20260901205017 | 36 | 0 | 8.0 | 0.0 | 0.00 | 0.00 | 0.00 | 36 | 1018.3 |
| 20260901204517 | 36 | 95 | 0.0 | 17.7 | 0.00 | 0.00 | 0.00 | 35 | 1018.3 |
| 20260901204017 | 36 | 96 | 0.0 | 8.0 | 0.00 | 0.00 | 0.00 | 35 | 1018.4 |
| 20260901203517 | 36 | 100 | 1.6 | 11.3 | 0.00 | 0.00 | 0.00 | 36 | 1018.4 |
| 20260901203017 | 36 | 100 | 8.0 | 11.3 | 0.00 | 0.00 | 0.00 | 36 | 1018.5 |
| 20260901202517 | 36 | 123 | 3.2 | 9.7 | 0.00 | 0.00 | 0.00 | 36 | 1018.5 |
| 20260901202017 | 36 | 89 | 0.0 | 11.3 | 0.00 | 0.00 | 0.00 | 38 | 1018.6 |
| 20260901201517 | 36 | 65 | 1.6 | 9.7 | 0.00 | 0.00 | 0.00 | 38 | 1018.7 |
| 20260901201017 | 36 | 68 | 4.8 | 12.9 | 0.00 | 0.00 | 0.00 | 37 | 1018.8 |
| 20260901200517 | 35 | 79 | 0.0 | 12.9 | 0.00 | 0.00 | 0.00 | 39 | 1018.8 |
| 20260901200017 | 35 | 90 | 6.4 | 12.9 | 0.00 | 0.00 | 0.00 | 40 | 1018.9 |
| 20260901195517 | 35 | 32 | 11.3 | 8.0 | 0.00 | 0.00 | 0.00 | 40 | 1019.0 |
| 20260901195017 | 35 | 69 | 3.2 | 12.9 | 0.00 | 0.00 | 0.00 | 39 | 1019.0 |
| 20260901194517 | 35 | 6 | 1.6 | 8.0 | 0.00 | 0.00 | 0.00 | 39 | 1019.0 |
| 20260901194017 | 35 | 76 | 0.0 | 11.3 | 0.00 | 0.00 | 0.00 | 40 | 1019.0 |
| 20260901193517 | 35 | 90 | 9.7 | 11.3 | 0.00 | 0.00 | 0.00 | 39 | 1019.1 |
| 20260901193018 | 35 | 86 | 6.4 | 11.3 | 0.00 | 0.00 | 0.00 | 41 | 1019.2 |
| 20260901192517 | 35 | 51 | 0.0 | 14.5 | 0.00 | 0.00 | 0.00 | 40 | 1019.2 |
| 20260901192017 | 35 | 45 | 0.0 | 8.0 | 0.00 | 0.00 | 0.00 | 40 | 1019.3 |
| 20260901191517 | 35 | 72 | 3.2 | 14.5 | 0.00 | 0.00 | 0.00 | 39 | 1019.4 |
| 20260901191017 | 35 | 83 | 11.3 | 12.9 | 0.00 | 0.00 | 0.00 | 40 | 1019.4 |
| 20260901190517 | 35 | 37 | 1.6 | 16.1 | 0.00 | 0.00 | 0.00 | 39 | 1019.4 |
| 20260901190017 | 35 | 104 | 4.8 | 8.0 | 0.00 | 0.00 | 0.00 | 39 | 1019.5 |
| 20260901185517 | 35 | 66 | 6.4 | 6.4 | 0.00 | 0.00 | 0.00 | 41 | 1019.6 |
| 20260901185017 | 35 | 73 | 1.6 | 9.7 | 0.00 | 0.00 | 0.00 | 41 | 1019.7 |
| 20260901184518 | 35 | 65 | 6.4 | 9.7 | 0.00 | 0.00 | 0.00 | 41 | 1019.7 |
| 20260901184017 | 35 | 44 | 0.0 | 9.7 | 0.00 | 0.00 | 0.00 | 40 | 1019.7 |
| 20260901183517 | 35 | 90 | 0.0 | 14.5 | 0.00 | 0.00 | 0.00 | 40 | 1019.7 |
| 20260901183017 | 35 | 78 | 4.8 | 12.9 | 0.00 | 0.00 | 0.00 | 40 | 1019.8 |
| 20260901182517 | 35 | 113 | 9.7 | 16.1 | 0.00 | 0.00 | 0.00 | 41 | 1019.9 |
| 20260901182017 | 35 | 112 | 11.3 | 9.7 | 0.00 | 0.00 | 0.00 | 41 | 1019.9 |
| 20260901181517 | 35 | 44 | 0.0 | 6.4 | 0.00 | 0.00 | 0.00 | 43 | 1019.9 |
| 20260901181017 | 35 | 86 | 3.2 | 12.9 | 0.00 | 0.00 | 0.00 | 44 | 1019.9 |
| 20260901180517 | 34 | 52 | 1.6 | 8.0 | 0.00 | 0.00 | 0.00 | 42 | 1019.9 |
| 20260901180017 | 35 | 90 | 6.4 | 11.3 | 0.00 | 0.00 | 0.00 | 42 | 1019.9 |
| 20260901175517 | 35 | 48 | 6.4 | 11.3 | 0.00 | 0.00 | 0.00 | 43 | 1020.0 |
| 20260901175018 | 34 | 47 | 4.8 | 6.4 | 0.00 | 0.00 | 0.00 | 44 | 1019.9 |
| 20260901174517 | 34 | 78 | 3.2 | 11.3 | 0.00 | 0.00 | 0.00 | 44 | 1020.0 |
| 20260901174018 | 34 | 69 | 8.0 | 12.9 | 0.00 | 0.00 | 0.00 | 44 | 1020.1 |
| 20260901173517 | 34 | 4 | 0.0 | 8.0 | 0.00 | 0.00 | 0.00 | 44 | 1020.1 |
| 20260901173022 | 34 | 150 | 4.8 | 8.0 | 0.00 | 0.00 | 0.00 | 44 | 1020.2 |
| 20260901172517 | 34 | 134 | 1.6 | 8.0 | 0.00 | 0.00 | 0.00 | 44 | 1020.2 |
| 20260901172017 | 33 | 56 | 0.0 | 6.4 | 0.00 | 0.00 | 0.00 | 45 | 1020.2 |
| 20260901171518 | 33 | 71 | 0.0 | 6.4 | 0.00 | 0.00 | 0.00 | 45 | 1020.2 |
| 20260901171017 | 33 | 100 | 4.8 | 9.7 | 0.00 | 0.00 | 0.00 | 45 | 1020.3 |
| 20260901170558 | 33 | 80 | 1.6 | 14.5 | 0.00 | 0.00 | 0.00 | 45 | 1020.4 |
| 20260901170017 | 33 | 44 | 0.0 | 8.0 | 0.00 | 0.00 | 0.00 | 47 | 1020.5 |
| 20260901165517 | 33 | 155 | 0.0 | 6.4 | 0.00 | 0.00 | 0.00 | 46 | 1020.5 |
| 20260901165017 | 33 | 89 | 4.8 | 9.7 | 0.00 | 0.00 | 0.00 | 47 | 1020.5 |
| 20260901164517 | 33 | 89 | 4.8 | 11.3 | 0.00 | 0.00 | 0.00 | 48 | 1020.5 |
| 20260901164018 | 32 | 20 | 6.4 | 1.6 | 0.00 | 0.00 | 0.00 | 48 | 1020.5 |
| 20260901163518 | 32 | 10 | 0.0 | 4.8 | 0.00 | 0.00 | 0.00 | 50 | 1020.5 |
| 20260901163018 | 32 | 83 | 4.8 | 11.3 | 0.00 | 0.00 | 0.00 | 50 | 1020.7 |
| 20260901162518 | 32 | 21 | 1.6 | 3.2 | 0.00 | 0.00 | 0.00 | 51 | 1020.7 |
| 20260901162017 | 32 | 92 | 0.0 | 8.0 | 0.00 | 0.00 | 0.00 | 51 | 1020.8 |
| 20260901161517 | 32 | 1 | 4.8 | 9.7 | 0.00 | 0.00 | 0.00 | 53 | 1020.8 |
| 20260901161017 | 31 | 332 | 1.6 | 4.8 | 0.00 | 0.00 | 0.00 | 56 | 1020.7 |
| 20260901160517 | 31 | 0 | 0.0 | 0.0 | 0.00 | 0.00 | 0.00 | 55 | 1020.8 |
| 20260901160017 | 31 | 356 | 0.0 | 4.8 | 0.00 | 0.00 | 0.00 | 53 | 1020.8 |
| 20260901155517 | 31 | 28 | 1.6 | 4.8 | 0.00 | 0.00 | 0.00 | 55 | 1020.9 |
| 20260901155017 | 32 | 34 | 0.0 | 1.6 | 0.00 | 0.00 | 0.00 | 54 | 1020.9 |
| 20260901154517 | 32 | 28 | 0.0 | 8.0 | 0.00 | 0.00 | 0.00 | 52 | 1020.9 |
| 20260901154017 | 32 | 24 | 1.6 | 3.2 | 0.00 | 0.00 | 0.00 | 55 | 1020.9 |
| 20260901153517 | 32 | 0 | 0.0 | 0.0 | 0.00 | 0.00 | 0.00 | 55 | 1020.9 |
| 20260901153017 | 31 | 13 | 0.0 | 3.2 | 0.00 | 0.00 | 0.00 | 56 | 1021.0 |
| 20260901152517 | 31 | 352 | 3.2 | 3.2 | 0.00 | 0.00 | 0.00 | 58 | 1021.0 |
| 20260901152017 | 31 | 0 | 0.0 | 0.0 | 0.00 | 0.00 | 0.00 | 57 | 1021.0 |
| 20260901151517 | 31 | 0 | 0.0 | 0.0 | 0.00 | 0.00 | 0.00 | 60 | 1021.0 |
| 20260901151017 | 31 | 52 | 0.0 | 4.8 | 0.00 | 0.00 | 0.00 | 61 | 1021.1 |
| 20260901150517 | 31 | 44 | 1.6 | 6.4 | 0.00 | 0.00 | 0.00 | 60 | 1021.1 |
| 20260901150017 | 31 | 56 | 3.2 | 4.8 | 0.00 | 0.00 | 0.00 | 62 | 1021.1 |
| 20260901145517 | 30 | 47 | 3.2 | 4.8 | 0.00 | 0.00 | 0.00 | 64 | 1021.1 |
| 20260901145018 | 30 | 17 | 0.0 | 4.8 | 0.00 | 0.00 | 0.00 | 66 | 1021.1 |
| 20260901144517 | 30 | 23 | 1.6 | 1.6 | 0.00 | 0.00 | 0.00 | 68 | 1021.1 |
| 20260901144017 | 29 | 31 | 0.0 | 4.8 | 0.00 | 0.00 | 0.00 | 68 | 1021.1 |
| 20260901143517 | 29 | 0 | 0.0 | 0.0 | 0.00 | 0.00 | 0.00 | 69 | 1021.1 |
| 20260901143017 | 28 | 0 | 0.0 | 0.0 | 0.00 | 0.00 | 0.00 | 72 | 1021.2 |
| 20260901142517 | 28 | 0 | 0.0 | 0.0 | 0.00 | 0.00 | 0.00 | 71 | 1021.2 |
| 20260901142017 | 28 | 66 | 0.0 | 1.6 | 0.00 | 0.00 | 0.00 | 72 | 1021.1 |
| 20260901141517 | 28 | 83 | 0.0 | 4.8 | 0.00 | 0.00 | 0.00 | 72 | 1021.1 |
| 20260901141017 | 27 | 86 | 3.2 | 4.8 | 0.00 | 0.00 | 0.00 | 73 | 1021.1 |
| 20260901140523 | 27 | 88 | 3.2 | 3.2 | 0.00 | 0.00 | 0.00 | 74 | 1021.1 |
| 20260901140017 | 27 | 83 | 0.0 | 4.8 | 0.00 | 0.00 | 0.00 | 74 | 1021.1 |
| 20260901135517 | 27 | 85 | 3.2 | 3.2 | 0.00 | 0.00 | 0.00 | 76 | 1021.1 |
| 20260901135017 | 27 | 65 | 0.0 | 6.4 | 0.00 | 0.00 | 0.00 | 76 | 1021.1 |
| 20260901134517 | 26 | 61 | 4.8 | 4.8 | 0.00 | 0.00 | 0.00 | 77 | 1021.1 |
| 20260901134017 | 26 | 92 | 0.0 | 4.8 | 0.00 | 0.00 | 0.00 | 78 | 1021.1 |
| 20260901133517 | 26 | 109 | 1.6 | 4.8 | 0.00 | 0.00 | 0.00 | 79 | 1021.1 |
| 20260901133018 | 26 | 110 | 1.6 | 4.8 | 0.00 | 0.00 | 0.00 | 79 | 1021.1 |
| 20260901132517 | 26 | 100 | 3.2 | 8.0 | 0.00 | 0.00 | 0.00 | 80 | 1021.2 |
| 20260901132017 | 26 | 89 | 4.8 | 12.9 | 0.00 | 0.00 | 0.00 | 80 | 1021.2 |
| 20260901131517 | 25 | 97 | 3.2 | 11.3 | 0.00 | 0.00 | 0.00 | 82 | 1021.2 |
| 20260901131017 | 25 | 89 | 4.8 | 9.7 | 0.00 | 0.00 | 0.00 | 83 | 1021.2 |
| 20260901130517 | 25 | 90 | 0.0 | 8.0 | 0.00 | 0.00 | 0.00 | 84 | 1021.1 |
| 20260901130016 | 25 | 78 | 3.2 | 8.0 | 0.00 | 0.00 | 0.00 | 84 | 1021.1 |
| 20260901125517 | 25 | 96 | 3.2 | 8.0 | 0.00 | 0.00 | 0.00 | 85 | 1021.1 |
| 20260901125017 | 25 | 95 | 6.4 | 11.3 | 0.00 | 0.00 | 0.00 | 85 | 1021.0 |
| 20260901124517 | 25 | 114 | 3.2 | 9.7 | 0.00 | 0.00 | 0.00 | 86 | 1021.0 |
| 20260901124017 | 25 | 90 | 3.2 | 11.3 | 0.00 | 0.00 | 0.00 | 86 | 1021.0 |
| 20260901123518 | 24 | 100 | 3.2 | 11.3 | 0.00 | 0.00 | 0.00 | 87 | 1021.0 |
| 20260901123017 | 24 | 92 | 4.8 | 9.7 | 0.00 | 0.00 | 0.00 | 88 | 1021.0 |
| 20260901122517 | 23 | 88 | 4.8 | 9.7 | 0.00 | 0.00 | 0.00 | 88 | 1020.9 |
| 20260901122017 | 23 | 93 | 6.4 | 6.4 | 0.00 | 0.00 | 0.00 | 89 | 1020.8 |
| 20260901121517 | 23 | 99 | 3.2 | 6.4 | 0.00 | 0.00 | 0.00 | 90 | 1020.8 |
| 20260901121017 | 23 | 103 | 4.8 | 6.4 | 0.00 | 0.00 | 0.00 | 90 | 1020.7 |
| 20260901120517 | 23 | 0 | 0.0 | 0.0 | 0.00 | 0.00 | 0.00 | 90 | 1020.7 |
| 20260901120016 | 23 | 0 | 0.0 | 0.0 | 0.00 | 0.00 | 0.00 | 91 | 1020.5 |
| 20260901115517 | 23 | 0 | 0.0 | 0.0 | 0.00 | 0.00 | 0.00 | 91 | 1020.4 |
| 20260901115017 | 23 | 0 | 0.0 | 0.0 | 0.00 | 0.00 | 0.00 | 91 | 1020.4 |
| 20260901114517 | 23 | 0 | 0.0 | 0.0 | 0.00 | 0.00 | 0.00 | 90 | 1020.3 |
| 20260901114017 | 23 | 0 | 0.0 | 0.0 | 0.00 | 0.00 | 0.00 | 90 | 1020.2 |
| 20260901113517 | 23 | 0 | 0.0 | 0.0 | 0.00 | 0.00 | 0.00 | 90 | 1020.2 |
| 20260901113017 | 23 | 0 | 0.0 | 0.0 | 0.00 | 0.00 | 0.00 | 90 | 1020.2 |
| 20260901112517 | 23 | 0 | 0.0 | 0.0 | 0.00 | 0.00 | 0.00 | 90 | 1020.1 |
| 20260901112017 | 23 | 0 | 0.0 | 0.0 | 0.00 | 0.00 | 0.00 | 90 | 1020.0 |
| 20260901111518 | 23 | 0 | 0.0 | 0.0 | 0.00 | 0.00 | 0.00 | 90 | 1020.0 |
| 20260901111017 | 23 | 0 | 0.0 | 0.0 | 0.00 | 0.00 | 0.00 | 90 | 1020.0 |
| 20260901110518 | 23 | 0 | 0.0 | 0.0 | 0.00 | 0.00 | 0.00 | 90 | 1019.9 |
| 20260901110017 | 23 | 0 | 0.0 | 0.0 | 0.00 | 0.00 | 0.00 | 90 | 1019.9 |
| 20260901105517 | 23 | 0 | 0.0 | 0.0 | 0.00 | 0.00 | 0.00 | 90 | 1019.8 |
| 20260901105017 | 23 | 0 | 0.0 | 0.0 | 0.00 | 0.00 | 0.00 | 90 | 1019.7 |
| 20260901104517 | 23 | 0 | 0.0 | 0.0 | 0.00 | 0.00 | 0.00 | 90 | 1019.7 |
| 20260901104017 | 23 | 0 | 0.0 | 0.0 | 0.00 | 0.00 | 0.00 | 90 | 1019.8 |
| 20260901103517 | 23 | 0 | 0.0 | 0.0 | 0.00 | 0.00 | 0.00 | 90 | 1019.8 |
| 20260901103017 | 23 | 0 | 0.0 | 0.0 | 0.00 | 0.00 | 0.00 | 90 | 1019.8 |
| 20260901102517 | 23 | 0 | 0.0 | 0.0 | 0.00 | 0.00 | 0.00 | 90 | 1019.7 |
| 20260901102017 | 23 | 0 | 0.0 | 0.0 | 0.00 | 0.00 | 0.00 | 90 | 1019.7 |
| 20260901101518 | 23 | 0 | 0.0 | 0.0 | 0.00 | 0.00 | 0.00 | 89 | 1019.7 |
| 20260901101017 | 23 | 0 | 0.0 | 0.0 | 0.00 | 0.00 | 0.00 | 89 | 1019.8 |
| 20260901100517 | 23 | 0 | 0.0 | 0.0 | 0.00 | 0.00 | 0.00 | 89 | 1019.8 |
| 20260901100017 | 23 | 0 | 0.0 | 0.0 | 0.00 | 0.00 | 0.00 | 89 | 1019.8 |
| 20260901095517 | 23 | 0 | 0.0 | 0.0 | 0.00 | 0.00 | 0.00 | 89 | 1019.8 |
| 20260901095017 | 23 | 0 | 0.0 | 0.0 | 0.00 | 0.00 | 0.00 | 89 | 1019.8 |
| 20260901094517 | 23 | 0 | 0.0 | 0.0 | 0.00 | 0.00 | 0.00 | 89 | 1019.8 |
| 20260901094017 | 23 | 0 | 0.0 | 0.0 | 0.00 | 0.00 | 0.00 | 89 | 1019.7 |
| 20260901093517 | 23 | 0 | 0.0 | 0.0 | 0.00 | 0.00 | 0.00 | 88 | 1019.7 |
| 20260901093017 | 23 | 0 | 0.0 | 0.0 | 0.00 | 0.00 | 0.00 | 88 | 1019.6 |
| 20260901092517 | 23 | 0 | 0.0 | 0.0 | 0.00 | 0.00 | 0.00 | 88 | 1019.5 |
| 20260901092017 | 23 | 0 | 0.0 | 0.0 | 0.00 | 0.00 | 0.00 | 88 | 1019.5 |
| 20260901091517 | 23 | 0 | 0.0 | 0.0 | 0.00 | 0.00 | 0.00 | 88 | 1019.5 |
| 20260901091017 | 24 | 0 | 0.0 | 0.0 | 0.00 | 0.00 | 0.00 | 88 | 1019.5 |
| 20260901090517 | 24 | 0 | 0.0 | 0.0 | 0.00 | 0.00 | 0.00 | 88 | 1019.5 |
| 20260901090017 | 24 | 0 | 0.0 | 0.0 | 0.00 | 0.00 | 0.00 | 87 | 1019.5 |
| 20260901085517 | 24 | 0 | 0.0 | 0.0 | 0.00 | 0.00 | 0.00 | 87 | 1019.4 |
| 20260901085017 | 24 | 0 | 0.0 | 0.0 | 0.00 | 0.00 | 0.00 | 87 | 1019.3 |
| 20260901084517 | 24 | 0 | 0.0 | 0.0 | 0.00 | 0.00 | 0.00 | 87 | 1019.3 |
| 20260901084017 | 24 | 0 | 0.0 | 0.0 | 0.00 | 0.00 | 0.00 | 87 | 1019.3 |
| 20260901083517 | 24 | 0 | 0.0 | 0.0 | 0.00 | 0.00 | 0.00 | 87 | 1019.3 |
| 20260901083016 | 24 | 0 | 0.0 | 0.0 | 0.00 | 0.00 | 0.00 | 86 | 1019.3 |
| 20260901082517 | 24 | 0 | 0.0 | 0.0 | 0.00 | 0.00 | 0.00 | 86 | 1019.3 |
| 20260901082017 | 25 | 0 | 0.0 | 0.0 | 0.00 | 0.00 | 0.00 | 86 | 1019.3 |
| 20260901081517 | 25 | 0 | 0.0 | 0.0 | 0.00 | 0.00 | 0.00 | 86 | 1019.2 |
| 20260901081017 | 25 | 0 | 0.0 | 0.0 | 0.00 | 0.00 | 0.00 | 86 | 1019.2 |
| 20260901080517 | 25 | 0 | 0.0 | 0.0 | 0.00 | 0.00 | 0.00 | 86 | 1019.2 |
| 20260901080017 | 25 | 0 | 0.0 | 0.0 | 0.00 | 0.00 | 0.00 | 86 | 1019.1 |
| 20260901075517 | 25 | 0 | 0.0 | 0.0 | 0.00 | 0.00 | 0.00 | 85 | 1019.1 |
| 20260901075018 | 25 | 0 | 0.0 | 0.0 | 0.00 | 0.00 | 0.00 | 85 | 1019.1 |
| 20260901074517 | 25 | 0 | 0.0 | 0.0 | 0.00 | 0.00 | 0.00 | 85 | 1019.1 |
| 20260901074017 | 25 | 0 | 0.0 | 0.0 | 0.00 | 0.00 | 0.00 | 85 | 1019.0 |
| 20260901073518 | 25 | 0 | 0.0 | 0.0 | 0.00 | 0.00 | 0.00 | 85 | 1019.0 |
| 20260901073017 | 25 | 0 | 0.0 | 0.0 | 0.00 | 0.00 | 0.00 | 85 | 1019.1 |
| 20260901072517 | 25 | 0 | 0.0 | 0.0 | 0.00 | 0.00 | 0.00 | 84 | 1019.0 |
| 20260901072018 | 25 | 0 | 0.0 | 0.0 | 0.00 | 0.00 | 0.00 | 84 | 1019.0 |
| 20260901071517 | 25 | 0 | 0.0 | 0.0 | 0.00 | 0.00 | 0.00 | 84 | 1019.0 |
| 20260901071017 | 25 | 0 | 0.0 | 0.0 | 0.00 | 0.00 | 0.00 | 84 | 1019.0 |
| 20260901070517 | 25 | 0 | 0.0 | 0.0 | 0.00 | 0.00 | 0.00 | 84 | 1019.0 |
| 20260901070017 | 25 | 0 | 0.0 | 0.0 | 0.00 | 0.00 | 0.00 | 84 | 1019.1 |
| 20260901065517 | 25 | 0 | 0.0 | 0.0 | 0.00 | 0.00 | 0.00 | 84 | 1019.1 |
| 20260901065017 | 25 | 0 | 0.0 | 0.0 | 0.00 | 0.00 | 0.00 | 83 | 1019.1 |
| 20260901064517 | 25 | 0 | 0.0 | 0.0 | 0.00 | 0.00 | 0.00 | 83 | 1019.1 |
| 20260901064017 | 25 | 0 | 0.0 | 0.0 | 0.00 | 0.00 | 0.00 | 83 | 1019.2 |
| 20260901063517 | 25 | 0 | 0.0 | 0.0 | 0.00 | 0.00 | 0.00 | 83 | 1019.2 |
| 20260901063017 | 25 | 0 | 0.0 | 0.0 | 0.00 | 0.00 | 0.00 | 83 | 1019.3 |
| 20260901062517 | 26 | 0 | 0.0 | 0.0 | 0.00 | 0.00 | 0.00 | 83 | 1019.3 |
| 20260901062017 | 25 | 0 | 0.0 | 0.0 | 0.00 | 0.00 | 0.00 | 83 | 1019.3 |
| 20260901061517 | 25 | 0 | 0.0 | 0.0 | 0.00 | 0.00 | 0.00 | 83 | 1019.3 |
| 20260901061017 | 25 | 0 | 0.0 | 0.0 | 0.00 | 0.00 | 0.00 | 83 | 1019.3 |
| 20260901060517 | 25 | 0 | 0.0 | 0.0 | 0.00 | 0.00 | 0.00 | 82 | 1019.4 |
| 20260901060017 | 25 | 0 | 0.0 | 0.0 | 0.00 | 0.00 | 0.00 | 82 | 1019.4 |
| 20260901055517 | 25 | 0 | 0.0 | 0.0 | 0.00 | 0.00 | 0.00 | 82 | 1019.4 |
| 20260901055017 | 25 | 0 | 0.0 | 0.0 | 0.00 | 0.00 | 0.00 | 82 | 1019.4 |
| 20260901054517 | 26 | 0 | 0.0 | 0.0 | 0.00 | 0.00 | 0.00 | 82 | 1019.4 |
| 20260901054017 | 26 | 0 | 0.0 | 0.0 | 0.00 | 0.00 | 0.00 | 82 | 1019.4 |
| 20260901053517 | 26 | 0 | 0.0 | 0.0 | 0.00 | 0.00 | 0.00 | 82 | 1019.4 |
| 20260901053017 | 26 | 0 | 0.0 | 0.0 | 0.00 | 0.00 | 0.00 | 82 | 1019.5 |
| 20260901052517 | 26 | 0 | 0.0 | 0.0 | 0.00 | 0.00 | 0.00 | 82 | 1019.5 |
| 20260901052018 | 26 | 0 | 0.0 | 0.0 | 0.00 | 0.00 | 0.00 | 82 | 1019.6 |
| 20260901051517 | 26 | 0 | 0.0 | 0.0 | 0.00 | 0.00 | 0.00 | 82 | 1019.6 |
| 20260901051018 | 26 | 0 | 0.0 | 0.0 | 0.00 | 0.00 | 0.00 | 82 | 1019.5 |
| 20260901050517 | 26 | 0 | 0.0 | 0.0 | 0.00 | 0.00 | 0.00 | 82 | 1019.4 |
| 20260901050017 | 26 | 0 | 0.0 | 0.0 | 0.00 | 0.00 | 0.00 | 82 | 1019.4 |
| 20260901045517 | 26 | 0 | 0.0 | 0.0 | 0.00 | 0.00 | 0.00 | 82 | 1019.4 |
| 20260901045017 | 26 | 0 | 0.0 | 0.0 | 0.00 | 0.00 | 0.00 | 82 | 1019.5 |
| 20260901044517 | 26 | 0 | 0.0 | 0.0 | 0.00 | 0.00 | 0.00 | 82 | 1019.5 |
| 20260901044022 | 26 | 0 | 0.0 | 0.0 | 0.00 | 0.00 | 0.00 | 81 | 1019.5 |
| 20260901043517 | 26 | 0 | 0.0 | 0.0 | 0.00 | 0.00 | 0.00 | 81 | 1019.4 |
| 20260901043017 | 26 | 0 | 0.0 | 0.0 | 0.00 | 0.00 | 0.00 | 81 | 1019.4 |
| 20260901042517 | 26 | 0 | 0.0 | 0.0 | 0.00 | 0.00 | 0.00 | 81 | 1019.5 |
| 20260901042017 | 26 | 0 | 0.0 | 0.0 | 0.00 | 0.00 | 0.00 | 81 | 1019.5 |
| 20260901041517 | 26 | 0 | 0.0 | 0.0 | 0.00 | 0.00 | 0.00 | 81 | 1019.5 |
| 20260901041018 | 26 | 0 | 0.0 | 0.0 | 0.00 | 0.00 | 0.00 | 81 | 1019.5 |
| 20260901040517 | 26 | 0 | 0.0 | 0.0 | 0.00 | 0.00 | 0.00 | 81 | 1019.5 |
| 20260901040017 | 26 | 0 | 0.0 | 0.0 | 0.00 | 0.00 | 0.00 | 81 | 1019.5 |
| 20260901035518 | 26 | 0 | 0.0 | 0.0 | 0.00 | 0.00 | 0.00 | 81 | 1019.6 |
| 20260901035017 | 26 | 0 | 0.0 | 0.0 | 0.00 | 0.00 | 0.00 | 81 | 1019.6 |
| 20260901034517 | 26 | 0 | 0.0 | 0.0 | 0.00 | 0.00 | 0.00 | 80 | 1019.6 |
| 20260901034017 | 26 | 0 | 0.0 | 0.0 | 0.00 | 0.00 | 0.00 | 80 | 1019.6 |
| 20260901033517 | 26 | 0 | 0.0 | 0.0 | 0.00 | 0.00 | 0.00 | 80 | 1019.6 |
| 20260901033017 | 26 | 0 | 0.0 | 0.0 | 0.00 | 0.00 | 0.00 | 79 | 1019.6 |
| 20260901032517 | 26 | 0 | 0.0 | 0.0 | 0.00 | 0.00 | 0.00 | 79 | 1019.6 |
| 20260901032017 | 26 | 0 | 0.0 | 0.0 | 0.00 | 0.00 | 0.00 | 79 | 1019.7 |
| 20260901031517 | 26 | 0 | 0.0 | 0.0 | 0.00 | 0.00 | 0.00 | 79 | 1019.7 |
| 20260901031017 | 26 | 0 | 0.0 | 0.0 | 0.00 | 0.00 | 0.00 | 78 | 1019.7 |
| 20260901030517 | 26 | 0 | 0.0 | 0.0 | 0.00 | 0.00 | 0.00 | 78 | 1019.7 |
| 20260901030017 | 26 | 0 | 0.0 | 0.0 | 0.00 | 0.00 | 0.00 | 78 | 1019.7 |
| 20260901025517 | 26 | 0 | 0.0 | 0.0 | 0.00 | 0.00 | 0.00 | 78 | 1019.6 |
| 20260901025017 | 26 | 0 | 0.0 | 0.0 | 0.00 | 0.00 | 0.00 | 78 | 1019.7 |
| 20260901024517 | 27 | 0 | 0.0 | 0.0 | 0.00 | 0.00 | 0.00 | 78 | 1019.7 |
| 20260901024016 | 27 | 0 | 0.0 | 0.0 | 0.00 | 0.00 | 0.00 | 77 | 1019.6 |
| 20260901023517 | 27 | 0 | 0.0 | 0.0 | 0.00 | 0.00 | 0.00 | 77 | 1019.6 |
| 20260901023017 | 27 | 0 | 0.0 | 0.0 | 0.00 | 0.00 | 0.00 | 77 | 1019.6 |
| 20260901022517 | 27 | 0 | 0.0 | 0.0 | 0.00 | 0.00 | 0.00 | 76 | 1019.5 |
| 20260901022017 | 27 | 0 | 0.0 | 0.0 | 0.00 | 0.00 | 0.00 | 76 | 1019.5 |
| 20260901021518 | 27 | 0 | 0.0 | 0.0 | 0.00 | 0.00 | 0.00 | 76 | 1019.5 |
| 20260901021017 | 27 | 0 | 0.0 | 0.0 | 0.00 | 0.00 | 0.00 | 75 | 1019.4 |
| 20260901020517 | 27 | 0 | 0.0 | 0.0 | 0.00 | 0.00 | 0.00 | 75 | 1019.4 |
| 20260901020017 | 27 | 0 | 0.0 | 0.0 | 0.00 | 0.00 | 0.00 | 74 | 1019.3 |
| 20260901015517 | 27 | 0 | 0.0 | 0.0 | 0.00 | 0.00 | 0.00 | 74 | 1019.3 |
| 20260901015017 | 27 | 0 | 0.0 | 0.0 | 0.00 | 0.00 | 0.00 | 74 | 1019.2 |
| 20260901014517 | 27 | 0 | 0.0 | 0.0 | 0.00 | 0.00 | 0.00 | 73 | 1019.2 |
| 20260901014017 | 27 | 0 | 0.0 | 0.0 | 0.00 | 0.00 | 0.00 | 73 | 1019.0 |
| 20260901013517 | 28 | 0 | 0.0 | 0.0 | 0.00 | 0.00 | 0.00 | 72 | 1019.0 |
| 20260901013017 | 28 | 0 | 0.0 | 0.0 | 0.00 | 0.00 | 0.00 | 72 | 1019.0 |
| 20260901012517 | 28 | 0 | 0.0 | 0.0 | 0.00 | 0.00 | 0.00 | 71 | 1018.8 |
| 20260901012017 | 28 | 0 | 0.0 | 0.0 | 0.00 | 0.00 | 0.00 | 71 | 1018.7 |
| 20260901011517 | 28 | 0 | 0.0 | 0.0 | 0.00 | 0.00 | 0.00 | 70 | 1018.7 |
| 20260901011017 | 28 | 0 | 0.0 | 0.0 | 0.00 | 0.00 | 0.00 | 69 | 1018.6 |
| 20260901010517 | 28 | 0 | 0.0 | 0.0 | 0.00 | 0.00 | 0.00 | 69 | 1018.6 |
| 20260901010017 | 28 | 0 | 0.0 | 0.0 | 0.00 | 0.00 | 0.00 | 68 | 1018.6 |
| 20260901005517 | 28 | 0 | 0.0 | 0.0 | 0.00 | 0.00 | 0.00 | 68 | 1018.6 |
| 20260901005017 | 28 | 0 | 0.0 | 0.0 | 0.00 | 0.00 | 0.00 | 67 | 1018.5 |
| 20260901004517 | 29 | 0 | 0.0 | 0.0 | 0.00 | 0.00 | 0.00 | 66 | 1018.5 |
| 20260901004017 | 29 | 0 | 0.0 | 0.0 | 0.00 | 0.00 | 0.00 | 66 | 1018.4 |
| 20260901003517 | 29 | 0 | 0.0 | 0.0 | 0.00 | 0.00 | 0.00 | 65 | 1018.3 |
| 20260901003017 | 30 | 0 | 0.0 | 0.0 | 0.00 | 0.00 | 0.00 | 64 | 1018.3 |
| 20260901002517 | 30 | 0 | 0.0 | 0.0 | 0.00 | 0.00 | 0.00 | 63 | 1018.3 |
| 20260901002018 | 30 | 0 | 0.0 | 0.0 | 0.00 | 0.00 | 0.00 | 62 | 1018.3 |
| 20260901001517 | 30 | 0 | 0.0 | 0.0 | 0.00 | 0.00 | 0.00 | 61 | 1018.2 |
| 20260901001017 | 31 | 0 | 0.0 | 0.0 | 0.00 | 0.00 | 0.00 | 60 | 1018.3 |
| 20260901000517 | 31 | 0 | 0.0 | 0.0 | 0.00 | 0.00 | 0.00 | 58 | 1018.3 |
| 20260901000017 | 31 | 83 | 0.0 | 6.4 | 0.00 | 0.00 | 0.00 | 57 | 1018.4 |
| 20260831235517 | 31 | 106 | 0.0 | 6.4 | 0.00 | 0.00 | 0.00 | 56 | 1018.4 |
| 20260831235018 | 32 | 109 | 1.6 | 6.4 | 0.00 | 0.00 | 0.00 | 55 | 1018.4 |
| 20260831234517 | 32 | 58 | 0.0 | 3.2 | 0.00 | 0.00 | 0.00 | 54 | 1018.4 |
| 20260831234018 | 32 | 0 | 0.0 | 0.0 | 0.00 | 0.00 | 0.00 | 53 | 1018.4 |
| 20260831233517 | 32 | 56 | 0.0 | 8.0 | 0.00 | 0.00 | 0.00 | 52 | 1018.4 |
| 20260831233017 | 32 | 86 | 3.2 | 6.4 | 0.00 | 0.00 | 0.00 | 52 | 1018.3 |
| 20260831232517 | 32 | 102 | 0.0 | 3.2 | 0.00 | 0.00 | 0.00 | 51 | 1018.3 |
| 20260831232017 | 32 | 80 | 0.0 | 9.7 | 0.00 | 0.00 | 0.00 | 50 | 1018.3 |